Weather History for Culdrose, United Kingdom

Change the Weather History Date:

Friday, July 19, 2013

  Actual Average Record
Temperature  
Mean Temperature 67 °F -  
Max Temperature 74 °F 64 °F 74 °F (2013)
Min Temperature 60 °F 54 °F 51 °F (2002)
Cooling Degree Days 2    
Growing Degree Days 17 (Base 50)    
Moisture  
Dew Point 61 °F    
Average Humidity 77    
Maximum Humidity 94    
Minimum Humidity 56    
Precipitation  
Precipitation 0.00 in - - ()
Sea Level Pressure  
Sea Level Pressure 30.22 in    
Wind  
Wind Speed 12 mph ()    
Max Wind Speed 23 mph    
Max Gust Speed 33 mph    
Visibility 7.8 miles    
Events      
Averages and records for this station are not official NWS values.
T = Trace of Precipitation, MM = Missing Value Source: Averaged Metar Reports

Daily Weather History Graph

Daily Weather History Graph

Search for Another Location

Airport:

Trip Planner

Search our weather history database for the weather conditions in past years. The results will help you decide how hot, cold, wet, or windy it might be!

Date:

Astronomy

Jul. 19, 2013 Rise Set
Actual Time 5:32 AM BST 9:21 PM BST
Civil Twilight 4:51 AM BST 10:02 PM BST
Nautical Twilight 3:54 AM BST 10:58 PM BST
Astronomical Twilight 2:23 AM BST 12:27 AM BST
Moon 6:07 PM BST (7/19) 2:04 AM BST (7/19)
Length of Visible Light 17h 10m
Length of Day
15h 48m
Waxing Gibbous, 84% of the Moon is Illuminated
Jul 19
Waxing Gibbous
Jul 22
Full
Jul 29
Last Quarter
Aug 6
New
Aug 14
First Quarter

Hourly Weather History & Observations

Time (BST) Temp. Dew Point Humidity Pressure Visibility Wind Dir Wind Speed Gust Speed Precip Events Conditions
12:50 AM 66 °F 60 °F 76% 30.27 in 9 mi ENE 8.1 mph - -   Haze
12:50 AM 66.2 °F 60.8 °F 83% 30.27 in - ENE 8.1 mph - N/A   Clear
1:50 AM 64.4 °F 60.8 °F 88% 30.27 in - East 11.5 mph - N/A   Clear
2:50 AM 62.6 °F 59.0 °F 88% 30.27 in - East 10.4 mph - N/A   Clear
3:50 AM 61 °F 59 °F 92% 30.27 in 9 mi East 10.4 mph - -   Haze
3:50 AM 60.8 °F 59.0 °F 94% 30.24 in - East 10.4 mph - N/A   Clear
4:50 AM 60.8 °F 59.0 °F 94% 30.24 in - East 11.5 mph - N/A   Clear
5:50 AM 60.8 °F 57.2 °F 88% 30.24 in - East 11.5 mph - N/A   Clear
6:50 AM 63 °F 59 °F 81% 30.25 in 9 mi East 11.5 mph - -   Haze
6:50 AM 62.6 °F 59.0 °F 88% 30.24 in - East 11.5 mph - N/A   Clear
7:50 AM 66.2 °F 60.8 °F 83% 30.24 in 6.2 mi East 8.1 mph - N/A   Haze
8:50 AM 68.0 °F 60.8 °F 78% 30.24 in 6.2 mi East 13.8 mph - N/A   Haze
9:50 AM 70 °F 60 °F 63% 30.23 in 11 mi East 17.3 mph - -   Haze
9:50 AM 69.8 °F 60.8 °F 73% 30.21 in 6.2 mi East 17.3 mph - N/A   Haze
10:50 AM 69.8 °F 59.0 °F 68% 30.21 in 6.2 mi East 17.3 mph - N/A   Partly Cloudy
11:50 AM 71.6 °F 60.8 °F 69% 30.21 in - East 18.4 mph - N/A   Clear
12:50 PM 72 °F 60 °F 56% 30.22 in 16 mi East 21.9 mph - -   Scattered Clouds
12:50 PM 71.6 °F 59.0 °F 64% 30.21 in - East 21.9 mph - N/A   Clear
1:50 PM 73.4 °F 62.6 °F 69% 30.21 in 6.2 mi East 19.6 mph - N/A   Haze
2:50 PM 73.4 °F 62.6 °F 69% 30.21 in 6.2 mi East 20.7 mph - N/A   Haze
3:50 PM 72 °F 62 °F 64% 30.20 in 9 mi East 20.7 mph - -   Haze
3:50 PM 71.6 °F 62.6 °F 73% 30.21 in 6.2 mi East 20.7 mph 33.4 mph N/A   Haze
4:50 PM 73.4 °F 62.6 °F 69% 30.18 in 6.2 mi East 23.0 mph - N/A   Unknown
5:50 PM 71.6 °F 62.6 °F 73% 0.00 in - East 23.0 mph - N/A   Unknown
6:50 PM 71 °F 63 °F 68%  in 9 mi East 19.6 mph - -   Haze
6:50 PM 71.6 °F 62.6 °F 73% 0.00 in - East 19.6 mph - N/A   Unknown
7:50 PM 71.6 °F 60.8 °F 69% 30.15 in 6.2 mi East 18.4 mph - N/A   Unknown
8:50 PM 68.0 °F 60.8 °F 78% 30.18 in 6.2 mi East 13.8 mph - N/A   Haze
9:50 PM 66 °F 60 °F 76% 30.19 in 9 mi East 12.7 mph - -   Haze
9:50 PM 66.2 °F 60.8 °F 83% 30.18 in 6.2 mi East 12.7 mph - N/A   Haze
10:50 PM 64.4 °F 60.8 °F 88% 30.18 in 6.2 mi East 10.4 mph - N/A   Haze
11:50 PM 62.6 °F 59.0 °F 88% 30.18 in - East 10.4 mph - N/A   Clear